sat.trackr.live / text

‹ back to catalog

STARLINK-11287 [DTC]

NORAD 60998 · 2024-158J

PAYLOAD ACTIVE UNKNOWN

§ Identity

Operator
Country
US
Launch date
2024-09-05
Launch site
AFETR
Launch vehicle
Mass (kg)
RCS (m²)

Purposes: comms

External: N2YO · Heavens-Above · Gunter

§ Orbital elements

Epoch: 2026-05-25T00:49:03.503712Z

Period
91.74 min
Inclination
53.1591°
Eccentricity
0.0001261
Mean motion
15.69706157 rev/d
Perigee alt
358.9 km
Apogee alt
360.6 km
Semi-major
6,737.9 km
B*
1.9790e-5
RAAN
265.0375°
Arg perigee
323.6093°
Mean anomaly
36.4839°
Rev number
9,957

§ Raw data

STARLINK-11287 [DTC]1 60998U 24158J   26145.03406833  .00001809  00000+0  19790-4 0  99942 60998  53.1591 265.0375 0001261 323.6093  36.4839 15.69706157 99572

JSON: /api/v1/satellites/60998 · /tle

For live sub-satellite position, see the globe view (requires WebGL).

§ Visibility from observer

Set your observer location to see the next 7 days of passes ≥ 10°. The values pass through the URL so the page stays shareable.

No JS? Fill the form by hand. The geolocation button needs JavaScript.